Location: Bouchavesnes-Bergen
(49.9859°N, 2.9203°E)
Time: 16:08:00
(UTC+00:00)

Cosmos 2219 Rocket - Visible Passes

Search period start: 23 June 2021 00:00
Search period end: 03 July 2021 00:00
Orbit: 827 x 847 km, 71.0° (Epoch: 22 June)

Date Brightness Start Highest point End Pass type
(mag) Time Alt. Az. Time Alt. Az. Time Alt. Az.
23 Jun 5.6 02:52:02 10° NNE 02:52:23 10° NNE 02:52:44 10° NNE visible
23 Jun 2.3 21:11:59 10° SSW 21:17:41 86° WNW 21:23:25 10° NNE visible
23 Jun 4.7 22:58:08 10° W 23:02:30 22° NW 23:06:52 10° NNE visible
24 Jun 2.3 20:55:36 10° SSW 21:01:17 89° ESE 21:07:00 10° NNE visible
24 Jun 4.6 22:41:34 10° W 22:46:01 23° NW 22:50:29 10° NNE visible
25 Jun 2.2 20:39:11 10° SSW 20:44:53 84° ESE 20:50:36 10° NNE visible
25 Jun 4.6 22:25:00 10° W 22:29:33 24° NW 22:34:07 10° NNE visible
26 Jun 4.6 22:08:25 10° W 22:13:05 25° NW 22:17:45 10° NNE visible
27 Jun 4.5 21:51:53 10° W 21:56:37 26° NW 22:01:22 10° NNE visible
27 Jun 5.7 23:42:19 10° NNW 23:42:44 10° NNW 23:43:11 10° NNW visible
28 Jun 4.5 21:35:20 10° WSW 21:40:09 28° NW 21:45:00 10° NNE visible
28 Jun 5.7 23:25:17 10° NNW 23:26:14 10° NNW 23:27:10 10° N visible
29 Jun 5.2 02:55:34 10° N 02:59:40 20° NE 03:03:46 10° E visible
29 Jun 4.5 21:18:48 10° WSW 21:23:42 29° NW 21:28:37 10° NNE visible
29 Jun 5.7 23:08:26 10° NNW 23:09:43 11° NNW 23:10:59 10° N visible
30 Jun 5.3 02:39:12 10° N 02:43:12 19° NE 02:47:10 10° E visible
30 Jun 4.4 21:02:15 10° WSW 21:07:15 31° NW 21:12:14 10° NNE visible
30 Jun 5.7 22:51:39 10° NW 22:53:11 11° NNW 22:54:45 10° N visible
01 Jul 5.4 02:22:51 10° N 02:26:43 18° NE 02:30:34 10° ENE visible
01 Jul 4.4 20:45:44 10° WSW 20:50:48 32° NW 20:55:52 10° NNE visible
01 Jul 5.8 22:34:53 10° NW 22:36:41 11° NNW 22:38:28 10° N visible
02 Jul 5.3 02:06:29 10° N 02:10:14 18° NE 02:13:57 10° ENE visible
02 Jul 5.8 22:18:10 10° NW 22:20:10 12° NNW 22:22:10 10° N visible
